Regional Weather Roundup
Issued by NWS Albany, NY

Home | Current Version | Previous Version | Graphics & Text | Print | Product List | Glossary Off
Versions: 1 2 3 4 5 6 7 8 9 10 11 12 13 14 15 16 17 18 19 20 21 22 23 24 25 26 27 28 29 30 31 32 33 34 35 36 37 38 39 40 41 42 43 44 45 46 47 48 49 50

000
ASUS41 KALY 131510
RWRALY

NEW YORK STATE HOURLY WEATHER ROUNDUP
NATIONAL WEATHER SERVICE ALBANY NY
1000 AM EST SAT FEB 13 2016

NOTE: "FAIR" INDICATES FEW OR NO CLOUDS BELOW 12,000 FEET WITH NO
SIGNIFICANT WEATHER AND/OR NO OBSTRUCTIONS TO VISIBILITY.

NYZ032-033-038>043-046>054-057>066-NYZ062>081-131600-
EAST


CITY           SKY/WX    TMP DP  RH WIND       PRES   REMARKS
ALBANY         MOSUNNY   11  -6  46 NW24G41   30.02R WCI  -9
GLENS FALLS    SUNNY     12 -11  35 NW18      29.96R WCI  -6
POUGHKEEPSIE   CLOUDY    18   3  52 NW14G31   30.00R WCI   4
NEWBURGH       PTSUNNY   16   0  48 NW16G37   29.98R WCI   0
MONTGOMERY     MOSUNNY   17  -8  32 NW20G32   30.00R WCI   1
WHITE PLAINS   MOSUNNY   20  -3  36 NW21G37   29.96R WCI   4
ISLIP          PTSUNNY   23   1  38 NW23G37   29.95R WCI   7
NEW YORK CITY  PTSUNNY   22   3  44 NW26G33   30.00R WCI   5
CENTRAL PARK   CLOUDY    21  -2  36 NW14G22   30.03R WCI   8
$$

NYZ005>009-017-018-044>046-055-056-131600-
CENTRAL


CITY           SKY/WX    TMP DP  RH WIND       PRES   REMARKS
FULTON         SNOW      -4 -13  65 NW21G28   30.21R VSB 1/2 WCI -28
SYRACUSE       LGT SNOW  -5 -11  75 NW20G26   30.20R VSB 3/4 WCI -28
ROME           MOSUNNY   -4 -14  62 NW22G31   30.15R HAZE    WCI -28
ELMIRA         MIX PCPN   1 -14  49 NW18G30   30.17R WCI -20
BINGHAMTON     MIX PCPN  -1 -12  59 NW23G35   30.01R VSB 1   WCI -25
MONTICELLO     PTSUNNY    7  -9  47 W21G36    29.95R WCI -13
$$

NYZ026>034-041>043-131600-
NORTH


CITY           SKY/WX    TMP DP  RH WIND       PRES   REMARKS
WATERTOWN      CLOUDY   -14 -24  61 NW14      30.25R HAZE    WCI -37
FORT DRUM      NOT AVBL
MASSENA        CLOUDY   -16 -27  57 W14G23    30.20R WCI -39
SARANAC LAKE   CLOUDY   -15 -24  64 W13G20    29.88R WCI -37
PLATTSBURGH    MOSUNNY   -3 -19  46 MISG      30.04R
$$

NYZ001>004-010>016-019>021-131600-
WEST


CITY           SKY/WX    TMP DP  RH WIND       PRES   REMARKS
NIAGARA FALLS  SNOW      -2 -10  69 NW12      30.33R VSB 1/2 WCI -20
BUFFALO        LGT SNOW  -3 -12  65 NW13      30.30R BLWGSNOWWCI -22
DUNKIRK        PTSUNNY    2  -9  60 NW21G28   30.33R HAZE    WCI -20
JAMESTOWN      CLOUDY     0  -9  65 NW17G25   30.15R WCI -21
WELLSVILLE     CLOUDY    -3 -13  62 NW18G31   30.06R HAZE    WCI -25
ROCHESTER      LGT SNOW  -3 -11  68 NW16      30.28R VSB 1   WCI -24
PENN YAN       PTSUNNY   -2 -15  54 W15G29    30.19R WCI -22
$$

             KEY
       WCI = WIND CHILL INDEX
       VSB = VISIBILITY
       HX  = HEAT INDEX
$$



USA.gov is the U.S. government's official web portal to all federal, state and local government web resources and services.